Hollywood, FL

7:57 PM EDT on October 14, 2019 (GMT -0400)
North Perry

Weather History for KHWO - August, 2019

Change the Weather History Date:

Thursday, August 8, 2019

  Actual Average (KFLL) Record (KFLL)
Temperature  
Mean Temperature 84 °F -  
Max Temperature 93 °F 89 °F 97 °F (1954)
Min Temperature 77 °F 75 °F 69 °F (1950)
Cooling Degree Days 19    
Growing Degree Days 34 (Base 50)    
Moisture  
Dew Point 75 °F    
Average Humidity 78    
Maximum Humidity 90    
Minimum Humidity 53    
Precipitation  
Precipitation 0.04 in - - ()
Sea Level Pressure  
Sea Level Pressure 30.02 in    
Wind  
Wind Speed 3 mph (SSW)    
Max Wind Speed 16 mph    
Max Gust Speed 25 mph    
Visibility 10 miles    
Events Rain , Thunderstorm    
Averages and records for this station are not official NWS values.
T = Trace of Precipitation, MM = Missing Value Source: NWS Daily Summary

Daily Weather History Graph

Daily Weather History Graph

Search for Another Location

Airport or City:

Astronomy

Aug. 08, 2019 Rise Set
Actual Time 6:50 AM EDT 8:02 PM EDT
Civil Twilight 6:25 AM EDT 8:27 PM EDT
Nautical Twilight 5:56 AM EDT 8:55 PM EDT
Astronomical Twilight 5:26 AM EDT 9:25 PM EDT
Moon 2:36 PM EDT (8/8) 1:07 AM EDT (8/8)
Length of Visible Light 14h 01m
Length of Day
13h 12m
First Quarter, 60% of the Moon is Illuminated
Aug 8
First Quarter
Aug 15
Full
Aug 23
Last Quarter
Aug 30
New
Sep 5
First Quarter

Hourly Weather History & Observations

Time (EDT) Temp. Heat Index Dew Point Humidity Pressure Visibility Wind Dir Wind Speed Gust Speed Precip Events Conditions
12:53 AM 82.0 °F 89.4 °F 75.9 °F 82% 30.02 in 10.0 mi Calm Calm - N/A   Clear
1:53 AM 81.0 °F 87.3 °F 75.9 °F 85% 30.02 in 10.0 mi Calm Calm - N/A   Clear
2:53 AM 80.1 °F 85.4 °F 75.9 °F 87% 30.01 in 10.0 mi Calm Calm - N/A   Clear
3:53 AM 79.0 °F - 75.9 °F 90% 30.00 in 10.0 mi NNW 3.5 mph - N/A   Clear
4:53 AM 79.0 °F - 75.9 °F 90% 29.99 in 10.0 mi Calm Calm - N/A   Clear
5:53 AM 79.0 °F - 75.9 °F 90% 30.00 in 10.0 mi Calm Calm - N/A   Clear
6:53 AM 78.1 °F - 75.0 °F 90% 30.01 in 10.0 mi Calm Calm - N/A   Clear
7:53 AM 81.0 °F 87.9 °F 77.0 °F 88% 30.02 in 10.0 mi Calm Calm - N/A   Clear
8:53 AM 86.0 °F 98.3 °F 78.1 °F 77% 30.04 in 10.0 mi Calm Calm - N/A   Clear
9:33 AM 88.0 °F 97.5 °F 75.0 °F 65% 30.03 in 10.0 mi SW 4.6 mph - N/A   Partly Cloudy
9:53 AM 88.0 °F 97.5 °F 75.0 °F 65% 30.04 in 10.0 mi Calm Calm - N/A   Partly Cloudy
10:53 AM 90.0 °F 99.0 °F 73.9 °F 59% 30.04 in 10.0 mi WSW 4.6 mph - N/A   Partly Cloudy
11:53 AM 91.0 °F 98.2 °F 72.0 °F 53% 30.04 in 10.0 mi SW 4.6 mph - N/A   Partly Cloudy
12:53 PM 89.1 °F 99.1 °F 75.0 °F 63% 30.04 in 10.0 mi ESE 10.4 mph - N/A   Mostly Cloudy
2:42 PM 89.1 °F 100.2 °F 75.9 °F 65% 30.02 in 8.0 mi SSE 6.9 mph - 0.01 in Rain , Thunderstorm Rain
2:53 PM 90.0 °F 102.5 °F 77.0 °F 65% 30.01 in 10.0 mi SE 10.4 mph 17.3 mph 0.02 in Rain , Thunderstorm Light Rain
3:16 PM 88.0 °F 98.5 °F 75.9 °F 67% 30.01 in 10.0 mi ESE 10.4 mph - 0.00 in Thunderstorm Thunderstorm
3:53 PM 87.1 °F 96.3 °F 75.0 °F 67% 30.01 in 10.0 mi Variable 3.5 mph - 0.00 in Thunderstorm Thunderstorm
4:51 PM 78.8 °F - 73.4 °F 83% 30.03 in 10.0 mi SW 13.8 mph 25.3 mph 0.00 in Rain , Thunderstorm Light Rain
4:53 PM 77.0 °F - 73.0 °F 88% 30.03 in 10.0 mi SW 16.1 mph 24.2 mph 0.00 in Rain , Thunderstorm Light Rain
5:35 PM 79.0 °F - 73.0 °F 82% 30.02 in 10.0 mi South 6.9 mph - 0.01 in   Scattered Clouds
5:53 PM 79.0 °F - 73.9 °F 84% 30.02 in 10.0 mi SSW 6.9 mph - 0.01 in Rain Light Rain
6:53 PM 79.0 °F - 72.0 °F 79% 30.01 in 10.0 mi SW 5.8 mph - 0.01 in   Partly Cloudy
7:53 PM 79.0 °F - 73.0 °F 82% 30.02 in 10.0 mi Calm Calm - N/A   Clear
8:53 PM 79.0 °F - 73.9 °F 84% 30.04 in 10.0 mi NW 3.5 mph - N/A   Mostly Cloudy
9:53 PM 79.0 °F - 75.0 °F 88% 30.05 in 10.0 mi South 3.5 mph - N/A   Clear
10:53 PM 79.0 °F - 75.0 °F 88% 30.05 in 10.0 mi South 3.5 mph - N/A   Clear
11:53 PM 79.0 °F - 75.0 °F 88% 30.05 in 10.0 mi Calm Calm - N/A   Clear